Hourly Data Report for July 29, 2012

HALIFAX STANFIELD INT'L A
NOVA SCOTIA

44°52'48.060" N
63°30'00.050" W
145.40 m
8202250
71395
YHZ

Download Data

Hourly Data (July 2012)
Hourly Data Report for July 29, 2012
TIME
LST
Temp Definition
°C
Dew Point Definition
°C
Rel Hum Definition
%
Precip. Amount Definition
mm

Wind Dir Definition
10's deg

Wind Spd Definition
km/h
Visibility Definition
km
Stn Press Definition
kPa
Hmdx Definition


Wind Chill Definition


Weather Definition


00:00 17.1 16.6 97     0 24.1 99.98     Mainly Clear
01:00 17.4 16.5 94     0 24.1 99.99     Mostly Cloudy
02:00 17.8 16.6 93     0 24.1 99.95     Mostly Cloudy
03:00 16.8 16.8 100     0 16.1 99.92     Mostly Cloudy
04:00 16.1 16.1 100   1 7 9.7 99.90     Fog
05:00 15.8 15.8 100     0 4.8 99.94     Fog
06:00 16.9 16.8 99   10 6 6.4 99.99     Fog
07:00 17.5 17.2 98   6 7 24.1 100.02     Cloudy
08:00 17.2 16.4 95   6 6 9.7 100.06     Fog
09:00 19.2 13.2 68   10 11 24.1 99.99     Cloudy
10:00 21.6 13.8 61   12 13 24.1 99.98 25   Cloudy
11:00 22.0 14.2 61   10 17 24.1 99.98 25   Cloudy
12:00 21.4 15.6 70   11 13 24.1 100.01 26   Cloudy
13:00 20.0 17.2 84   15 11 24.1 99.99 25   Rain Showers
14:00 19.7 18.1 90   12 11 24.1 99.96     Rain Showers
15:00 19.8 18.5 92   11 13 24.1 99.88     Rain Showers
16:00 19.8 17.1 84   10 17 24.1 99.89     Rain Showers
17:00 18.9 15.8 82   9 17 24.1 99.88     Rain Showers
18:00 18.6 16.1 85   11 11 24.1 99.87     Cloudy
19:00 17.8 15.9 89   4 9 16.1 99.90     Rain Showers
20:00 16.9 14.8 87   6 11 9.7 99.95     Rain Showers
21:00 16.6 14.4 87   4 7 9.7 100.01     Rain Showers
22:00 15.8 14.8 94   6 15 4.8 100.00     Moderate Rain Showers, Fog
23:00 14.8 14.4 97   1 11 16.1 99.96     Rain Showers

Notes on Data Quality.

Legend

  • E = Estimated
  • M = Missing
  • NA = Not Available*
  • [empty] = Indicates an unobserved value
Date modified: